Regional Weather Roundup
Issued by NWS

Home | Current Version | Previous Version | Graphics & Text | Print | Product List | Glossary On
Versions: 1 2 3 4 5 6 7 8 9 10 11 12 13 14 15 16 17 18 19 20 21 22 23 24 25 26 27 28 29 30 31 32 33 34 35 36 37 38 39 40 41 42 43 44 45 46 47 48 49 50
000
ASUS45 KCYS 302010
RWRWY

WYOMING REGIONAL WEATHER ROUNDUP
NATIONAL WEATHER SERVICE CHEYENNE WY
200 PM MDT THU JUL 30 2015

NOTE:  "FAIR" INDICATES FEW OR NO CLOUDS BELOW 12,000 FEET
WITH NO SIGNIFICANT WEATHER AND/OR OBSTRUCTIONS TO VISIBILITY.

WYZ001-302100-
YELLOWSTONE NATIONAL PARK

CITY           SKY/WX    TMP DP  RH WIND       PRES   REMARKS
LK YELLOWSTONE   N/A     67  42  40 VRB6      30.55F
W YELLOWSTONE  NOT AVBL

$$
WYZ002>013-054>058-071-098>099-302100-
NORTHERN WYOMING

CITY           SKY/WX    TMP DP  RH WIND       PRES   REMARKS
JACKSON        FAIR      75  36  23 S6        30.44F
CODY           FAIR      82  34  17 E8        30.33S
GREYBULL       FAIR      87  33  14 E7        30.27F
WORLAND        FAIR      86  29  12 VRB6      30.29F
SHERIDAN       FAIR      88  36  15 NE7       30.28F
BUFFALO        FAIR      84  35  17 MISG      30.34F
GILLETTE       FAIR      84  35  17 CALM      30.30F
HULETT         FAIR      81  36  19 CALM      30.31S
NEWCASTLE      FAIR      82  30  15 W6        30.30S

$$
WYZ014>020-022>026-101>103-302100-
CENTRAL WYOMING

CITY           SKY/WX    TMP DP  RH WIND       PRES   REMARKS
BIG PINEY      FAIR      77  21  12 SW6       30.47F
PINEDALE       FAIR      75  18  11 CALM      30.48F
DUBOIS         FAIR      77  23  13 SE5       30.46F
LANDER         FAIR      82  32  16 VRB6      30.35F
RIVERTON       FAIR      80  25  13 CALM      30.36F
CASPER         FAIR      84  25  11 VRB7      30.35F
DOUGLAS        FAIR      88  38  17 VRB7      30.33F

$$
WYZ021-027>030-104>119-302100-
SOUTHERN WYOMING

CITY           SKY/WX    TMP DP  RH WIND       PRES   REMARKS
EVANSTON       FAIR      81   6   5 W12       30.48F
KEMMERER       FAIR      79  21  11 NW9G17    30.48F
FORT BRIDGER   CLEAR     81  21  11 NW10G16   30.49F
ROCK SPRINGS   FAIR      78  21  12 NW5       30.44F
DIXON          FAIR      85  13   7 S6        30.43F
RAWLINS        FAIR      83  16   8 W9        30.44S
SARATOGA       FAIR      81  19  10 NE6       30.46S
LARAMIE        FAIR      81  24  12 NE8       30.46F
CHEYENNE       FAIR      83  42  23 NE8       30.39F
TORRINGTON     FAIR      89  41  18 SE12      30.27F
PINE BLUFFS    FAIR      82  46  28 NE6       30.34F

$$



USA.gov is the U.S. government's official web portal to all federal, state and local government web resources and services.